Weather in Bykovka

Russia / Belgorod Oblast     50°48′08″N   36°25′50″E
temp.,
°C
wind,
m/s
gust,
m/s
humid.,
%
clouds,
%
prec.,
mm/h
press.,
hPa
HPBL,
m
18 april, sun
sun1800:00+6sw368892 0.1 1019340
03:00+5ssw379076 0.2 1018327
06:00+4sw239589 0.1 101859
09:00+8sw2371100 0.3 1018374
12:00+8ssw2367100 0.3 1018975
15:00+8w2578100 1.6 1018707
18:00+7w2381100 1.0 1018543
21:00+6se3392100 3.2 1018239
19 april, mon
mon1900:00+5s239199 1.2 1018228
03:00+6w1291100 1.3 1017149
06:00+6wnw1289100 0.1 101779
09:00+7nw2284100 0.2 1017254
12:00+9nnw1170100 0.1 1017853
15:00+9n2269100 0.3 1016743
18:00+9n2271100 0.1 1016401
21:00+8ne1176100 0.1 101619
20 april, tue
tue2000:00+8e227391 0.0 101528
03:00+6ene337631 0.0 101328
06:00+5ne368660 0.0 1012102
09:00+9e5980100 0.0 1011417
12:00+12ene81172100 0.1 10071016
15:00+9ene101490100 4.1 10031195
18:00+8ene91593100 7.9 9981036
21:00+8e3797100 10.5 996351
21 april, wed
wed2100:00+9s41192100 1.1 996638
03:00+4nw81393100 4.9 999583
06:00+4wnw71389100 0.1 10041051
09:00+7w7118369 0.3 10081037
12:00+9wsw696996 0.4 10111312
15:00+10wsw686498 0.6 10131366
18:00+8wsw4873100 0.1 1015550
21:00+7wsw3777100 0.1 1017287
22 april, thu
thu2200:00+6sw3682100 0.0 1018130
03:00+6sw368120 0.1 1019178
06:00+4ssw358286 0.0 1020110
09:00+9s476484 0.0 1020474
12:00+13s5758100 0.1 10201402
15:00+14s5756100 1.2 10191499
18:00+12s5969100 1.3 1019430
21:00+9s388457 1.3 1019150